[[{"header":{"parameterUnit":"m.s-1","parameterCategory":1,"la1":30.2991,"la2":30.254,"lo1":-89.0895,"lo2":-89.0444,"dy":0.0017,"dx":0.0017,"nx":28,"ny":28,"refTime":"2024-03-31T09:00:00:Z","depth":0,"parameterNumber":2,"parameterNumberName":"U-component_of_WINDS"},"data":[0,0,0,0,0,0,0,0,0,0,0,0,0,0,0,0,0,0,0,0,0,0,0,0,0,0,0,0,0,0,0,0,0,0,0,0,0,0,0,0,0,0,0,0,0,0,0,0,0,0,0,0,0,0,0,0,0,0,-0.8038,-0.8039,0,-0.8046,-0.8046,-0.8046,-0.8059,-0.8059,-0.806,-0.806,-0.8067,-0.8067,-0.8067,0,0,0,0,0,0,0,0,0,0,0,0,0,-0.8036,-0.8036,-0.8038,-0.8039,-0.8039,-0.8046,-0.8046,-0.8046,-0.8059,-0.8059,-0.806,-0.806,-0.8067,-0.8067,-0.8067,0,0,0,0,0,0,0,0,0,0,0,0,0,-0.8039,-0.8036,-0.8038,-0.8046,-0.8047,-0.8046,-0.8046,-0.8046,-0.8059,-0.8059,-0.806,-0.806,-0.8067,-0.8067,-0.8067,-0.8058,0,0,-0.8066,-0.8066,0,0,0,0,0,0,0,0,-0.8039,-0.804,-0.8045,-0.8046,-0.8046,-0.8052,-0.8047,-0.805,-0.8059,-0.8054,-0.806,-0.806,-0.8062,-0.8062,-0.8062,-0.8059,-0.8059,-0.8066,-0.8066,-0.8066,-0.8066,0,0,0,0,0,0,0,-0.8039,-0.8039,-0.8041,-0.8045,-0.8046,-0.8049,-0.805,-0.8048,-0.8056,-0.8055,-0.8056,-0.8057,-0.8062,-0.8062,-0.8063,-0.8059,-0.8066,-0.8066,-0.8066,-0.8066,-0.805,-0.8049,0,0,0,0,0,0,-0.8038,-0.8039,-0.8041,-0.8042,-0.8044,-0.8049,-0.805,-0.805,-0.8056,-0.8057,-0.8056,-0.8057,-0.8062,-0.8063,-0.8063,-0.8054,-0.8066,-0.8066,-0.8066,-0.805,-0.805,-0.8049,0,0,0,0,0,0,-0.8038,-0.8038,-0.8041,-0.8041,-0.8041,-0.8049,-0.8048,-0.805,-0.805,-0.8057,-0.8058,-0.8055,-0.8063,-0.8063,-0.806,-0.8054,-0.8066,-0.8066,-0.8051,-0.805,-0.8049,-0.8035,0,0,0,0,0,0,-0.8037,-0.8038,-0.8034,-0.804,-0.8041,-0.8037,-0.8048,-0.805,-0.805,-0.8051,-0.8056,-0.8057,-0.8063,-0.806,-0.806,-0.8054,-0.8066,-0.8051,-0.805,-0.805,-0.8036,-0.8034,-0.8033,0,0,0,0,0,-0.8037,-0.803,-0.8034,-0.8034,-0.8037,-0.8037,-0.8037,-0.8044,-0.805,-0.8046,-0.8051,-0.8057,-0.8055,-0.8059,-0.8059,-0.8054,-0.8051,-0.8051,-0.805,-0.8037,-0.8035,-0.8033,0,0,0,0,0,0,-0.8023,-0.8031,-0.8036,-0.803,-0.8033,-0.8039,-0.8035,-0.8041,-0.8042,-0.8043,-0.8052,-0.8053,-0.8048,-0.8051,-0.8055,-0.8047,-0.8054,-0.8053,-0.8045,-0.8043,-0.8041,-0.804,-0.8066,0,0,0,0,0,-0.8019,-0.8018,-0.8025,-0.802,-0.8021,-0.8028,-0.8028,-0.8033,-0.8036,-0.8037,-0.8041,-0.8044,-0.8044,-0.8043,-0.8044,-0.8037,-0.8038,-0.8034,-0.8032,-0.803,-0.8029,-0.8026,-0.8024,-0.8046,-0.8046,-0.8046,0,0,-0.8011,-0.8016,-0.8014,-0.8017,-0.802,-0.8018,-0.8029,-0.8027,-0.8026,-0.8037,-0.8034,-0.8037,-0.804,-0.8035,-0.8033,-0.8038,-0.8024,-0.8029,-0.8028,-0.8028,-0.8025,-0.8023,-0.8021,-0.8046,-0.8046,-0.8046,0,0,-0.7996,-0.7999,-0.7995,-0.7998,-0.8002,-0.8007,-0.8006,-0.8011,-0.8014,-0.8011,-0.8019,-0.8019,-0.8018,-0.8021,-0.8022,-0.8008,-0.8014,-0.8008,-0.7998,-0.7996,-0.7994,-0.7992,-0.7987,-0.7986,-0.8007,-0.8007,-0.8007,0,-0.7986,-0.7984,-0.7992,-0.799,-0.7991,-0.8001,-0.7997,-0.7999,-0.8003,-0.8003,-0.8008,-0.8008,-0.8011,-0.8007,-0.8004,-0.8004,-0.8004,-0.8007,-0.7993,-0.7992,-0.7991,-0.7986,-0.7984,-0.8006,-0.8007,-0.8007,-0.8007,0,-0.7971,-0.797,-0.7966,-0.797,-0.7971,-0.7967,-0.7975,-0.7975,-0.798,-0.7984,-0.7982,-0.7986,-0.7987,-0.7987,-0.7992,-0.7984,-0.7986,-0.7992,-0.8,-0.7988,-0.7984,-0.7982,-0.8005,-0.8006,-0.8006,-0.8006,0,0,-0.7947,-0.7955,-0.7954,-0.7956,-0.7961,-0.7961,-0.7958,-0.796,-0.7959,-0.7962,-0.796,-0.796,-0.7966,-0.7967,-0.7972,-0.797,-0.7959,-0.7976,-0.7976,-0.7973,-0.795,-0.7946,-0.7943,-0.7963,-0.7963,-0.7963,-0.795,0,-0.7932,-0.7929,-0.7936,-0.793,-0.7929,-0.794,-0.7937,-0.7941,-0.7945,-0.7945,-0.795,-0.795,-0.7957,-0.7958,-0.7956,-0.7961,-0.7955,-0.7962,-0.7961,-0.7961,-0.796,-0.7941,-0.7936,-0.7924,-0.7948,-0.7948,-0.7948,0,-0.7915,-0.7917,-0.7911,-0.7918,-0.7918,-0.7916,-0.7918,-0.7918,-0.7922,-0.7925,-0.7927,-0.7934,-0.7932,-0.794,-0.7938,-0.7942,-0.7943,-0.7945,-0.7945,-0.7945,-0.7954,-0.794,-0.792,-0.7918,-0.7946,-0.7946,-0.7946,0,-0.7898,-0.7899,-0.7896,-0.7897,-0.7904,-0.7903,-0.7906,-0.791,-0.7911,-0.7913,-0.7914,-0.7916,-0.7917,-0.7918,-0.7925,-0.793,-0.7922,-0.7931,-0.7925,-0.7925,-0.7922,-0.7922,-0.7901,-0.7923,-0.7923,-0.7923,-0.7923,0,-0.7881,-0.7877,-0.7888,-0.7886,-0.7882,-0.7891,-0.7887,-0.7891,-0.7895,-0.7894,-0.7903,-0.7902,-0.7911,-0.7911,-0.7917,-0.7914,-0.7915,-0.7917,-0.7919,-0.7916,-0.7916,-0.7916,-0.7917,-0.7922,-0.7923,-0.7923,-0.7923,0,-0.786,-0.7867,-0.7865,-0.7872,-0.7874,-0.7871,-0.7877,-0.7875,-0.7881,-0.7879,-0.788,-0.7888,-0.7888,-0.7896,-0.7898,-0.7902,-0.7897,-0.79,-0.7895,-0.7896,-0.789,-0.789,-0.7868,-0.7866,-0.7889,-0.7889,-0.7889,0,-0.7849,-0.7846,-0.7853,-0.7853,-0.7856,-0.7856,-0.7857,-0.7866,-0.7866,-0.7871,-0.7869,-0.7871,-0.7872,-0.7873,-0.7879,-0.7881,-0.7884,-0.7876,-0.7884,-0.7882,-0.7884,-0.7883,-0.7883,-0.7874,-0.7874,-0.7873,-0.7873,0,-0.7827,-0.7831,-0.7832,-0.7835,-0.7836,-0.7838,-0.7841,-0.784,-0.785,-0.785,-0.7851,-0.7853,-0.7855,-0.7856,-0.786,-0.7863,-0.787,-0.7871,-0.787,-0.7867,-0.7864,-0.7865,-0.789,-0.7871,-0.7871,-0.7871,-0.7872,-0.7872,-0.7811,-0.7809,-0.7814,-0.7815,-0.7818,-0.7821,-0.782,-0.7825,-0.7826,-0.7829,-0.7834,-0.7834,-0.7839,-0.7844,-0.7847,-0.7847,-0.7851,-0.7849,-0.7849,-0.7848,-0.7847,-0.7864,-0.7848,-0.7848,-0.7848,-0.7848,-0.7848,0,-0.779,-0.7794,-0.7795,-0.7799,-0.78,-0.7806,-0.781,-0.781,-0.781,-0.7814,-0.7816,-0.7817,-0.7818,-0.7825,-0.7827,-0.7826,-0.783,-0.7827,-0.7827,-0.7827,-0.7843,-0.7844,-0.7824,-0.7824,-0.7824,-0.7824,-0.7824,-0.7824,-0.7779,-0.7777,-0.7781,-0.778,-0.7784,-0.7785,-0.7786,-0.7789,-0.7792,-0.7793,-0.7794,-0.7799,-0.7804,-0.7807,-0.7808,-0.781,-0.7811,-0.7807,-0.781,-0.7824,-0.7826,-0.7828,-0.7829,-0.7807,-0.7807,-0.7794,-0.7794,-0.7794]},{"header":{"parameterUnit":"m.s-1","parameterCategory":1,"la1":30.2991,"la2":30.254,"lo1":-89.0895,"lo2":-89.0444,"dy":0.0017,"dx":0.0017,"nx":28,"ny":28,"refTime":"2024-03-31T09:00:00:Z","depth":0,"parameterNumber":3,"parameterNumberName":"V-component_of_WINDS"},"data":[0,0,0,0,0,0,0,0,0,0,0,0,0,0,0,0,0,0,0,0,0,0,0,0,0,0,0,0,0,0,0,0,0,0,0,0,0,0,0,0,0,0,0,0,0,0,0,0,0,0,0,0,0,0,0,0,0,0,5.7804,5.7805,0,5.7896,5.7897,5.7898,5.787,5.7868,5.7866,5.7864,5.7954,5.7959,5.7963,0,0,0,0,0,0,0,0,0,0,0,0,0,5.7599,5.7603,5.7804,5.7805,5.7806,5.7896,5.7897,5.7899,5.787,5.7868,5.7866,5.7863,5.7953,5.7958,5.7963,0,0,0,0,0,0,0,0,0,0,0,0,0,5.7689,5.7604,5.7803,5.7803,5.7804,5.7896,5.7897,5.7899,5.7871,5.7868,5.7865,5.7862,5.7951,5.7958,5.7964,5.8061,0,0,5.7983,5.7986,0,0,0,0,0,0,0,0,5.7684,5.7696,5.7802,5.7803,5.7804,5.7869,5.7858,5.7953,5.7871,5.7845,5.7864,5.7861,5.7928,5.7936,5.796,5.8065,5.8069,5.7984,5.7987,5.799,5.7992,0,0,0,0,0,0,0,5.7678,5.7692,5.784,5.7803,5.7805,5.7797,5.7806,5.7876,5.7901,5.7847,5.7845,5.7857,5.7928,5.7954,5.7961,5.807,5.7983,5.7989,5.7993,5.7995,5.8261,5.8264,0,0,0,0,0,0,5.7671,5.7687,5.7837,5.7843,5.7736,5.7803,5.7813,5.7851,5.7901,5.7906,5.7859,5.7855,5.7944,5.7954,5.7964,5.8083,5.799,5.7996,5.8,5.8258,5.8262,5.8265,0,0,0,0,0,0,5.7667,5.7685,5.7833,5.7765,5.7783,5.7809,5.7851,5.7854,5.788,5.791,5.7914,5.7881,5.7942,5.7956,5.8038,5.8086,5.7999,5.8005,5.8254,5.8259,5.8264,5.8319,0,0,0,0,0,0,5.7661,5.7683,5.7721,5.7766,5.7787,5.7906,5.7854,5.7858,5.7891,5.7887,5.7931,5.7936,5.7941,5.8028,5.8044,5.8093,5.8009,5.825,5.8256,5.8262,5.8314,5.8326,5.8336,0,0,0,0,0,5.7654,5.7732,5.7723,5.7742,5.7835,5.7909,5.7921,5.7927,5.7895,5.7933,5.7953,5.7934,5.8078,5.8037,5.8054,5.8106,5.8247,5.8254,5.8262,5.8308,5.8323,5.8336,0,0,0,0,0,0,5.769,5.7738,5.7729,5.7824,5.7863,5.7904,5.7952,5.7942,5.7989,5.7983,5.7987,5.7997,5.8082,5.8101,5.8055,5.8203,5.8157,5.8169,5.8187,5.8202,5.8213,5.8207,5.8015,0,0,0,0,0,5.771,5.7767,5.7805,5.7885,5.7905,5.7926,5.7958,5.7959,5.7999,5.8015,5.804,5.8079,5.8133,5.8168,5.8219,5.8316,5.8326,5.836,5.8371,5.838,5.839,5.8445,5.8461,5.829,5.829,5.8289,0,0,5.7749,5.7783,5.7818,5.7893,5.7924,5.7983,5.794,5.8003,5.8047,5.8024,5.8104,5.8124,5.8167,5.8258,5.8299,5.8277,5.8439,5.8389,5.8397,5.8402,5.8454,5.847,5.8484,5.8295,5.8294,5.8293,0,0,5.7853,5.7884,5.7955,5.7987,5.8035,5.8048,5.8065,5.8108,5.8121,5.8202,5.8187,5.8238,5.833,5.8362,5.839,5.8508,5.8493,5.8524,5.8583,5.8636,5.865,5.8662,5.8705,5.8721,5.8533,5.8533,5.8533,0,5.7897,5.7986,5.7992,5.8059,5.8092,5.8076,5.8148,5.8178,5.8239,5.8262,5.8237,5.8354,5.8381,5.848,5.8509,5.8532,5.8552,5.8519,5.8648,5.866,5.8671,5.8713,5.8729,5.8537,5.8537,5.8536,5.8536,0,5.8038,5.8101,5.8152,5.8215,5.8253,5.8322,5.8337,5.8376,5.8374,5.839,5.8472,5.8505,5.8563,5.8586,5.8584,5.8685,5.8671,5.8647,5.8601,5.8691,5.873,5.8746,5.8542,5.8541,5.854,5.8539,0,0,5.8167,5.8233,5.8252,5.8281,5.8333,5.8381,5.8448,5.8507,5.8541,5.8583,5.8641,5.872,5.8698,5.873,5.8731,5.8778,5.8871,5.8748,5.8749,5.8771,5.8986,5.9006,5.9024,5.8861,5.8864,5.8866,5.8984,0,5.8277,5.8399,5.8406,5.8516,5.8574,5.856,5.8619,5.8657,5.8674,5.8724,5.8741,5.8799,5.8765,5.8785,5.883,5.885,5.8914,5.8841,5.8914,5.8917,5.8906,5.9044,5.9064,5.9173,5.8999,5.9001,5.9003,0,5.8421,5.8471,5.8587,5.8633,5.8657,5.8711,5.8766,5.8815,5.8857,5.8866,5.8903,5.8898,5.8966,5.8918,5.9013,5.8964,5.8994,5.9008,5.9012,5.9021,5.8967,5.9058,5.9208,5.9225,5.9027,5.9025,5.9023,0,5.8506,5.8602,5.8684,5.8709,5.8763,5.8802,5.8826,5.8865,5.8901,5.8948,5.8972,5.9026,5.9056,5.9098,5.9107,5.9071,5.9203,5.9155,5.9213,5.9213,5.9242,5.9241,5.9401,5.9259,5.9259,5.9258,5.9258,0,5.8628,5.87,5.8724,5.8775,5.8855,5.8863,5.8941,5.8963,5.8998,5.9053,5.9042,5.9093,5.9102,5.9155,5.9162,5.9241,5.9254,5.9263,5.9264,5.9265,5.9264,5.9286,5.9279,5.9263,5.9262,5.9261,5.926,0,5.8737,5.8756,5.8845,5.889,5.8903,5.8961,5.8999,5.9047,5.9063,5.9132,5.9148,5.9172,5.9234,5.9247,5.9319,5.9324,5.9419,5.9411,5.9405,5.9405,5.9463,5.9458,5.9644,5.967,5.9509,5.9511,5.9512,0,5.8815,5.8871,5.8923,5.896,5.8987,5.9045,5.9082,5.9091,5.913,5.9183,5.9226,5.9286,5.9336,5.9435,5.9458,5.9514,5.9509,5.957,5.9517,5.9517,5.9512,5.951,5.9516,5.9581,5.9583,5.9584,5.9585,0,5.8952,5.8959,5.9014,5.9072,5.9117,5.9163,5.9207,5.9237,5.9252,5.9296,5.936,5.9398,5.9474,5.9534,5.959,5.9614,5.9603,5.9602,5.9618,5.962,5.9615,5.9621,5.9435,5.9598,5.9596,5.9596,5.9595,5.9594,5.9049,5.9099,5.9144,5.9206,5.924,5.9281,5.933,5.9353,5.9407,5.9471,5.9472,5.9542,5.9584,5.9658,5.9685,5.974,5.972,5.9744,5.975,5.9756,5.9763,5.9606,5.9749,5.9749,5.9749,5.9749,5.9748,0,5.9187,5.9216,5.9273,5.9336,5.9384,5.9371,5.9418,5.946,5.9522,5.9563,5.9613,5.9687,5.9746,5.9774,5.9833,5.9871,5.9868,5.9886,5.9884,5.989,5.9776,5.9756,5.9889,5.9888,5.9888,5.9888,5.9888,5.9888,5.9265,5.9349,5.9361,5.9462,5.949,5.9561,5.9589,5.9627,5.966,5.9744,5.9794,5.9813,5.9849,5.991,5.9964,5.9971,5.9993,6.0015,6.002,5.9912,5.9898,5.9885,5.9867,6.002,6.002,6.013,6.0131,6.0132]}]]